Weather History for North Myrtle Beach, SC

Change the Weather History Date:

Friday, February 8, 2013

  Actual Average Record
Temperature  
Mean Temperature 57 °F 47 °F  
Max Temperature 64 °F 56 °F 74 °F (2009)
Min Temperature 49 °F 38 °F 22 °F (1951)
Degree Days  
Heating Degree Days 8 18  
Month to date heating degree days 142 149  
Since 1 July heating degree days 1431 1617  
Cooling Degree Days 0 0  
Month to date cooling degree days 0 0  
Year to date cooling degree days 2 0  
Growing Degree Days 6 (Base 50)    
Moisture  
Dew Point 48 °F    
Average Humidity 73    
Maximum Humidity 93    
Minimum Humidity 52    
Precipitation  
Precipitation 0.13 in 0.12 in 0.23 in (2014)
Month to date precipitation 0.88 0.88  
Year to date precipitation 1.52 4.57  
Sea Level Pressure  
Sea Level Pressure 29.81 in    
Wind  
Wind Speed 7 mph (NW)    
Max Wind Speed 18 mph    
Max Gust Speed 28 mph    
Visibility 9 miles    
Events Rain    
T = Trace of Precipitation, MM = Missing Value Source: NWS Daily Summary

Daily Weather History Graph

Daily Weather History Graph

Search for Another Location

Airport:

Trip Planner

Search our weather history database for the weather conditions in past years. The results will help you decide how hot, cold, wet, or windy it might be!

Date:

Astronomy

Feb. 08, 2013 Rise Set
Actual Time 7:05 AM EST 5:52 PM EST
Civil Twilight 6:39 AM EST 6:18 PM EST
Nautical Twilight 6:10 AM EST 6:48 PM EST
Astronomical Twilight 5:41 AM EST 7:17 PM EST
Moon 5:30 AM EST (2/8) 4:25 PM EST (2/8)
Length of Visible Light 11h 38m
Length of Day
10h 47m
Waning Crescent, 3% of the Moon is Illuminated
Feb 8
Waning Crescent
Feb 10
New
Feb 17
First Quarter
Feb 25
Full
Mar 4
Last Quarter

Hourly Weather History & Observations

Time (EST) Temp. Dew Point Humidity Pressure Visibility Wind Dir Wind Speed Gust Speed Precip Events Conditions
12:36 AM 55.4 °F 53.6 °F 94% 29.71 in 9.0 mi NE 10.4 mph - 0.07 in Rain Light Rain
12:53 AM 55.9 °F 54.0 °F 93% 29.70 in 7.0 mi WSW 4.6 mph 21.9 mph 0.09 in Rain Light Rain
1:10 AM 55.4 °F 53.6 °F 94% 29.66 in 9.0 mi ENE 6.9 mph - 0.00 in Rain Light Rain
1:20 AM 55.4 °F 53.6 °F 94% 29.66 in 7.0 mi ENE 4.6 mph - 0.01 in Rain Rain
1:48 AM 55.4 °F 55.4 °F 100% 29.64 in 5.0 mi Variable 3.5 mph - 0.02 in Rain Light Rain
1:53 AM 55.9 °F 54.0 °F 93% 29.64 in 7.0 mi NE 6.9 mph - 0.02 in Rain Light Rain
2:09 AM 55.4 °F 53.6 °F 94% 29.67 in 5.0 mi WNW 10.4 mph 20.7 mph 0.02 in Rain Light Rain
2:53 AM 53.1 °F 51.1 °F 93% 29.65 in 8.0 mi NNW 9.2 mph 23.0 mph 0.02 in Rain Light Rain
3:53 AM 52.0 °F 50.0 °F 93% 29.66 in 10.0 mi NNW 6.9 mph - 0.00 in   Overcast
4:39 AM 51.8 °F 48.2 °F 88% 29.69 in 10.0 mi NNW 10.4 mph 21.9 mph N/A   Overcast
4:53 AM 50.0 °F 46.9 °F 89% 29.70 in 10.0 mi NNW 10.4 mph 19.6 mph N/A   Overcast
5:53 AM 48.9 °F 46.0 °F 90% 29.74 in 10.0 mi NNW 10.4 mph 25.3 mph N/A   Overcast
6:53 AM 48.9 °F 45.0 °F 86% 29.78 in 10.0 mi NNW 13.8 mph 26.5 mph N/A   Overcast
7:53 AM 48.9 °F 44.1 °F 83% 29.82 in 10.0 mi NW 9.2 mph - N/A   Overcast
8:53 AM 52.0 °F 45.0 °F 77% 29.85 in 10.0 mi NW 8.1 mph - N/A   Mostly Cloudy
9:08 AM 51.8 °F 44.6 °F 76% 29.85 in 10.0 mi NNW 9.2 mph 16.1 mph N/A   Partly Cloudy
9:53 AM 55.9 °F 44.1 °F 64% 29.85 in 10.0 mi NNW 5.8 mph - N/A   Clear
10:53 AM 59.0 °F 45.0 °F 60% 29.88 in 10.0 mi NW 8.1 mph - N/A   Clear
11:53 AM 59.0 °F 46.0 °F 62% 29.87 in 10.0 mi WNW 11.5 mph 17.3 mph N/A   Clear
12:53 PM 60.1 °F 46.9 °F 62% 29.88 in 10.0 mi West 9.2 mph 16.1 mph N/A   Clear
1:53 PM 60.1 °F 44.1 °F 55% 29.87 in 10.0 mi NW 8.1 mph 18.4 mph N/A   Clear
2:53 PM 63.0 °F 45.0 °F 52% 29.86 in 10.0 mi WNW 12.7 mph 20.7 mph N/A   Clear
3:53 PM 63.0 °F 45.0 °F 52% 29.86 in 10.0 mi Variable 6.9 mph 17.3 mph N/A   Clear
4:53 PM 62.1 °F 45.0 °F 53% 29.87 in 10.0 mi West 6.9 mph 17.3 mph N/A   Clear
5:53 PM 59.0 °F 45.0 °F 60% 29.90 in 10.0 mi WNW 6.9 mph - N/A   Overcast
6:53 PM 57.9 °F 46.0 °F 65% 29.93 in 10.0 mi Calm Calm - N/A   Overcast
7:53 PM 55.9 °F 46.9 °F 72% 29.95 in 10.0 mi WSW 4.6 mph - N/A   Overcast
8:53 PM 55.0 °F 46.9 °F 74% 29.96 in 10.0 mi WSW 5.8 mph - N/A   Clear
9:53 PM 53.1 °F 46.0 °F 77% 29.99 in 10.0 mi Calm Calm - N/A   Clear
10:53 PM 51.1 °F 46.9 °F 86% 30.01 in 10.0 mi Calm Calm - N/A   Clear
11:53 PM 50.0 °F 44.1 °F 80% 30.04 in 10.0 mi NNW 4.6 mph - N/A   Clear